Location: Carson
(33.8314°N, 118.2820°W)
Time: 12:18:35
(UTC+00:00)

Cosmos 1441 Rocket - Pass Details

Date: 23 November 2020
Orbit: 497 x 539 km, 81.1° (Epoch: 22 January)

Event Time Altitude Azimuth Distance (km) Brightness Sun altitude
Rises 13:13:15 0° 201° (SSW) 2,630 6.7 -16.5°
Reaches altitude 10° 13:15:28 10° 207° (SSW) 1,739 5.7 -16.1°
Maximum altitude 13:19:07 44° 280° (W) 722 3.4 -15.4°
Drops below altitude 10° 13:22:45 10° 354° (N) 1,727 5.6 -14.6°
Sets 13:24:57 0° 1° (N) 2,610 6.6 -14.2°
